Total_Precipitation_Accumulation
0.14 0.49 0.41 0.41 0.32 0.42 0.24 0.19 0.46 0.68 0.13 0.31 0.16 0.04 0.04 0.01 0.00 0.00 0.02 0.01 0.01 0.01 0.00 0.00 0.00 0.01 0.00 0.01 0.04 0.03 0.09 0.08 0.04 0.03 0.09 0.09 0.05 0.08 0.09 0.10 0.03 0.02 0.07 0.02 0.02 0.01 0.01 0.01 0.00 0.00 0.01 0.01 0.01 0.01 0.04 0.02 0.03 0.04 0.04 0.06 0.04 0.03 0.06
0.09 0.17 0.70 0.78 0.40 0.68 0.45 0.52 0.28 0.46 0.23 0.11 0.16 0.05 0.04 0.08 0.07 0.01 0.03 0.02 0.03 0.01 0.01 0.00 0.00 0.00 0.00 0.01 0.01 0.02 0.02 0.07 0.02 0.03 0.03 0.03 0.06 0.13 0.04 0.02 0.07 0.02 0.05 0.03 0.06 0.01 0.01 0.00 0.00 0.01 0.01 0.01 0.01 0.02 0.03 0.03 0.02 0.03 0.04 0.06 0.04 0.06 0.04
0.35 0.28 0.56 1.52 0.97 1.05 1.00 0.96 0.60 0.34 0.20 0.20 0.27 0.11 0.11 0.47 0.49 0.50 0.43 0.33 0.17 0.02 0.08 0.01 0.00 0.00 0.00 0.00 0.00 0.02 0.01 0.02 0.05 0.07 0.05 0.06 0.19 0.17 0.12 0.06 0.10 0.04 0.03 0.04 0.05 0.06 0.00 0.02 0.00 0.01 0.01 0.01 0.03 0.03 0.02 0.05 0.02 0.02 0.05 0.06 0.04 0.07 0.06
0.27 0.61 0.63 1.37 1.48 1.85 1.97 1.70 1.22 0.93 0.42 0.22 0.27 0.20 0.34 0.47 0.39 0.39 0.58 0.52 0.30 0.14 0.03 0.04 0.01 0.00 0.00 0.00 0.00 0.00 0.00 0.01 0.03 0.04 0.03 0.03 0.07 0.04 0.04 0.15 0.02 0.02 0.05 0.02 0.02 0.00 0.06 0.01 0.03 0.00 0.00 0.00 0.01 0.02 0.02 0.02 0.02 0.03 0.02 0.06 0.03 0.05 0.06
0.91 0.79 0.55 0.50 1.01 1.56 1.25 1.30 2.13 1.60 0.89 0.35 0.53 0.80 0.92 0.38 0.57 0.61 0.84 0.52 0.65 0.48 0.11 0.05 0.06 0.00 0.00 0.00 0.00 0.00 0.01 0.00 0.01 0.02 0.02 0.01 0.02 0.01 0.03 0.06 0.03 0.04 0.07 0.00 0.02 0.00 0.06 0.01 0.01 0.01 0.01 0.00 0.00 0.01 0.01 0.01 0.02 0.02 0.02 0.04 0.07 0.03 0.06
0.57 0.46 0.20 0.21 0.71 1.29 1.54 1.20 1.50 1.11 0.89 0.64 0.50 0.65 0.35 0.35 0.77 0.45 0.51 0.51 0.67 0.43 0.31 0.54 0.16 0.03 0.00 0.01 0.00 0.00 0.00 0.00 0.00 0.00 0.00 0.00 0.01 0.04 0.03 0.01 0.02 0.03 0.01 0.02 0.02 0.00 0.00 0.03 0.04 0.02 0.00 0.00 0.01 0.03 0.03 0.05 0.01 0.01 0.02 0.02 0.03 0.07 0.04
0.40 0.30 0.33 0.18 0.52 0.99 1.13 1.05 0.96 1.14 0.92 0.60 0.58 0.75 1.14 0.71 0.42 0.47 0.27 0.24 0.24 0.21 0.26 0.15 0.07 0.12 0.02 0.01 0.01 0.00 0.00 0.00 0.00 0.00 0.00 0.01 0.01 0.01 0.01 0.00 0.00 0.02 0.01 0.06 0.01 0.01 0.01 0.01 0.01 0.00 0.02 0.01 0.00 0.01 0.01 0.02 0.03 0.02 0.02 0.02 0.02 0.02 0.02
0.66 0.37 0.25 0.12 0.19 0.35 0.78 0.76 0.65 0.91 1.37 0.93 0.87 0.53 0.81 0.80 0.72 0.94 0.55 0.52 0.29 0.52 0.52 0.40 0.13 0.03 0.04 0.01 0.00 0.01 0.00 0.00 0.00 0.00 0.00 0.00 0.01 0.01 0.02 0.02 0.00 0.03 0.01 0.02 0.01 0.00 0.00 0.03 0.01 0.02 0.01 0.02 0.00 0.00 0.01 0.08 0.01 0.01 0.01 0.02 0.02 0.02 0.03
0.35 0.73 0.49 0.46 0.33 0.48 0.65 0.88 1.20 0.73 0.83 0.97 1.02 1.59 1.02 0.76 1.15 0.96 1.06 1.43 1.73 1.69 1.07 0.68 0.39 0.18 0.14 0.04 0.03 0.02 0.03 0.00 0.00 0.01 0.00 0.00 0.00 0.01 0.01 0.01 0.01 0.00 0.01 0.01 0.04 0.02 0.01 0.01 0.03 0.01 0.01 0.01 0.01 0.01 0.02 0.02 0.02 0.01 0.02 0.03 0.04 0.01 0.02
0.25 0.29 0.92 1.12 1.29 0.80 1.44 1.89 1.29 1.29 1.16 0.97 1.11 1.07 1.08 1.25 0.88 0.87 1.22 1.26 1.16 1.48 1.20 0.76 0.57 0.74 0.45 0.56 0.33 0.04 0.04 0.08 0.04 0.00 0.00 0.00 0.03 0.03 0.10 0.05 0.01 0.02 0.01 0.01 0.00 0.01 0.02 0.01 0.05 0.02 0.01 0.02 0.04 0.04 0.04 0.04 0.04 0.03 0.05 0.01 0.02 0.01 0.00
0.37 0.31 0.34 0.94 0.81 1.35 2.34 2.23 1.98 1.68 1.38 1.21 1.08 1.11 0.74 0.92 0.64 0.84 0.62 0.73 0.70 1.00 1.65 1.55 1.06 1.04 0.51 0.61 0.62 0.53 0.06 0.11 0.11 0.04 0.04 0.04 0.08 0.05 0.05 0.04 0.06 0.03 0.02 0.01 0.01 0.04 0.09 0.04 0.06 0.11 0.14 0.13 0.11 0.12 0.07 0.06 0.03 0.02 0.01 0.01 0.02 0.02 0.08
0.31 0.42 0.88 0.72 1.09 1.30 2.31 2.95 2.26 2.44 1.57 1.00 1.08 1.14 1.04 0.92 0.84 0.74 0.98 0.88 0.73 0.72 1.28 1.32 1.08 1.51 1.40 1.00 0.46 0.73 0.44 0.27 0.23 0.12 0.16 0.09 0.04 0.07 0.03 0.01 0.01 0.00 0.02 0.03 0.06 0.08 0.09 0.11 0.20 0.24 0.21 0.16 0.12 0.11 0.08 0.03 0.02 0.02 0.03 0.01 0.02 0.03 0.01
0.70 0.78 0.94 1.48 1.76 1.66 1.59 2.31 1.35 1.72 1.44 0.98 1.33 1.71 2.08 1.46 1.38 1.34 1.35 1.17 0.83 0.85 1.11 1.49 1.50 0.97 0.86 0.50 0.38 0.53 0.81 0.66 0.85 0.97 0.51 0.13 0.19 0.16 0.22 0.13 0.01 0.03 0.04 0.05 0.11 0.22 0.23 0.26 0.25 0.21 0.19 0.15 0.12 0.06 0.03 0.02 0.02 0.03 0.04 0.03 0.02 0.02 0.04
0.60 1.02 1.29 1.91 2.22 1.67 1.24 1.10 2.05 1.58 2.75 3.77 3.54 2.53 2.57 1.31 1.51 1.58 1.43 1.58 1.54 1.66 1.82 1.60 0.91 0.73 0.61 0.38 0.40 0.40 0.63 0.57 0.92 0.87 0.53 0.65 0.56 0.29 0.14 0.26 0.15 0.13 0.16 0.30 0.31 0.32 0.39 0.35 0.30 0.24 0.18 0.14 0.13 0.10 0.05 0.05 0.03 0.03 0.03 0.09 0.04 0.06 0.08
1.05 1.14 1.17 1.15 1.13 1.25 1.11 1.02 2.80 3.45 4.78 3.77 2.98 3.15 3.43 3.35 2.58 2.45 2.84 1.84 2.18 2.75 2.94 2.52 2.21 1.82 1.45 1.30 1.04 1.06 1.03 1.06 1.24 1.65 0.98 0.53 0.88 0.72 0.25 0.38 0.33 0.39 0.48 0.40 0.51 0.64 0.39 0.40 0.24 0.11 0.12 0.12 0.07 0.34 0.13 0.09 0.18 0.06 0.09 0.25 0.14 0.07 0.15
1.18 1.25 1.10 0.70 0.62 1.23 1.07 1.40 2.41 2.72 2.48 2.26 2.39 2.56 2.33 2.51 2.78 2.93 2.78 2.31 2.16 3.26 2.48 1.93 2.62 2.38 1.83 1.41 1.53 1.50 1.38 1.27 1.47 1.54 1.36 0.97 1.90 2.35 1.06 0.94 1.21 1.26 1.05 0.87 0.89 0.65 0.61 0.27 0.13 0.07 0.05 0.07 0.10 0.18 0.41 0.35 0.27 0.12 0.14 0.17 0.22 0.48 0.15
1.15 0.74 0.91 1.03 1.12 1.55 2.09 1.74 2.36 2.24 2.44 1.86 1.86 2.09 2.73 2.66 2.95 3.34 3.23 3.75 3.64 3.36 3.15 3.22 2.89 2.29 1.84 1.98 3.16 2.48 2.43 2.73 1.98 1.47 1.61 1.99 1.92 2.25 1.92 1.27 0.91 0.79 0.77 0.70 0.60 0.53 0.35 0.21 0.15 0.12 0.06 0.06 0.10 0.28 0.56 0.23 0.39 0.24 0.47 0.20 0.11 0.28 0.26
1.90 2.10 1.14 1.36 1.67 1.85 1.35 1.60 1.68 1.29 1.25 2.09 3.02 3.27 3.28 3.19 3.94 3.25 2.82 2.61 3.89 3.96 4.39 5.18 4.27 3.88 3.21 3.05 3.50 3.07 2.27 2.32 3.27 2.55 2.00 1.97 2.84 2.55 1.95 1.74 1.11 0.84 0.58 0.41 0.45 0.30 0.36 0.24 0.20 0.14 0.09 0.06 0.09 0.32 0.45 0.47 0.31 0.58 0.52 0.09 0.00 0.00 0.06
1.26 1.56 1.76 1.02 1.05 2.02 1.89 1.77 2.09 1.89 2.05 1.61 1.28 1.77 1.86 2.16 2.89 3.84 3.40 2.93 3.69 5.08 4.97 4.51 4.08 3.67 3.51 3.84 3.55 3.36 2.75 3.12 3.96 2.91 2.55 3.09 3.35 3.02 2.64 1.60 1.33 1.28 1.17 0.55 0.72 0.74 0.42 0.27 0.31 0.28 0.39 0.17 0.30 0.62 0.21 0.25 0.63 0.07 0.05 0.00 0.00 0.00 0.02
1.08 1.21 1.47 2.25 1.78 1.23 1.62 1.89 1.83 1.37 1.67 2.35 2.51 2.31 1.56 1.43 1.76 2.23 3.14 3.85 5.04 7.16 5.72 4.69 5.39 4.72 4.77 4.26 4.22 3.37 2.34 2.33 2.48 2.32 2.64 2.87 3.40 2.95 1.79 1.84 1.03 1.12 1.48 1.04 0.91 0.80 0.55 0.56 0.62 0.39 0.43 0.20 0.29 0.34 0.53 0.33 0.11 0.06 0.05 0.00 0.01 0.01 0.02
0.58 0.64 0.54 0.63 0.80 0.81 1.53 1.01 1.32 1.37 1.45 1.72 1.36 1.16 1.32 1.32 1.75 1.78 2.30 2.35 2.85 2.84 3.69 4.54 4.78 5.61 4.45 3.62 4.13 3.54 2.53 2.85 2.81 2.65 2.99 2.97 2.69 2.13 2.50 1.73 1.57 1.35 1.84 1.53 1.47 1.29 0.88 0.47 0.40 0.43 0.30 0.26 0.41 0.49 0.27 0.45 0.13 0.03 0.01 0.00 0.00 0.00 0.00
0.71 0.66 0.97 0.64 0.79 0.73 0.98 0.71 0.91 1.07 1.20 0.83 0.62 1.50 1.59 1.48 1.53 1.59 1.95 2.04 2.76 2.34 2.47 2.90 2.68 3.52 3.09 4.33 4.44 3.18 2.71 2.74 2.99 3.43 4.39 4.27 3.10 2.32 2.33 2.14 1.99 1.90 2.12 1.94 1.47 1.22 0.87 0.51 0.41 0.40 0.49 0.47 0.52 0.30 0.33 0.10 0.04 0.01 0.01 0.01 0.02 0.01 0.02
0.63 0.58 0.40 0.57 0.43 0.97 0.92 0.68 0.58 0.92 0.91 1.04 0.85 1.13 1.64 2.02 1.71 1.73 1.84 2.03 2.32 2.30 2.08 2.07 2.01 1.90 2.71 3.24 3.21 2.76 2.56 2.69 3.51 3.17 3.05 3.03 3.21 3.10 3.32 3.29 3.26 2.71 2.56 1.90 1.29 0.89 0.83 0.67 0.56 0.42 1.07 0.97 0.87 0.58 0.55 0.18 0.31 0.07 0.05 0.04 0.03 0.03 0.03
0.74 0.45 0.33 0.35 0.56 0.67 0.60 0.51 0.35 0.49 0.62 0.75 1.05 1.05 1.03 1.31 1.80 2.25 2.20 1.88 1.89 2.29 3.96 2.63 2.91 2.58 2.92 3.14 2.61 3.53 2.76 3.18 2.96 3.60 3.86 3.03 3.13 3.13 3.48 3.61 3.24 3.53 3.16 2.53 2.03 2.05 2.41 2.11 0.82 1.61 2.07 1.59 0.82 0.41 0.23 0.13 0.11 0.27 0.35 0.35 0.03 0.05 0.06
0.55 0.44 0.68 0.76 0.89 1.19 0.70 0.79 0.96 0.93 0.53 0.60 0.82 1.15 1.31 1.57 1.80 1.68 1.24 1.67 1.32 1.08 1.37 1.55 2.01 1.88 2.07 2.00 1.81 1.97 1.90 2.22 2.65 3.12 3.88 4.10 3.08 3.32 3.92 3.39 3.02 2.89 2.76 2.49 2.34 2.62 2.96 2.67 2.70 3.81 3.11 2.54 2.09 0.75 0.44 0.34 0.77 0.73 0.81 1.29 1.01 1.03 0.89
0.48 0.31 0.21 0.20 0.17 0.16 0.49 0.36 0.27 0.20 0.48 0.50 0.66 0.23 0.37 0.50 1.07 1.71 1.97 1.66 1.40 1.54 1.61 1.68 1.59 1.54 1.52 1.54 1.47 1.54 1.62 1.61 1.48 1.70 2.35 2.28 3.06 4.56 4.14 4.83 4.82 4.45 3.44 3.29 3.78 3.71 3.41 3.56 3.16 2.83 2.83 2.29 1.78 1.67 1.18 1.16 0.99 1.22 0.53 0.79 1.27 0.63 1.03
0.33 0.44 0.34 0.22 0.19 0.15 0.27 0.19 0.22 0.19 0.33 0.16 0.22 0.16 0.12 0.10 0.09 0.41 0.98 1.61 1.64 1.44 1.40 1.43 1.46 1.31 1.51 1.61 1.12 1.18 1.27 1.62 1.87 1.63 1.31 1.44 1.88 2.08 2.65 3.23 3.39 4.29 4.46 4.16 4.10 4.64 4.74 3.64 3.16 2.58 2.30 2.30 2.12 2.49 3.16 2.97 2.54 2.01 1.31 1.21 1.47 0.87 1.12
0.24 0.24 0.08 0.17 0.07 0.16 0.07 0.08 0.15 0.19 0.17 0.24 0.21 0.14 0.10 0.13 0.13 0.27 0.27 0.29 0.39 1.39 0.94 1.19 0.89 0.92 1.12 1.36 1.27 1.41 1.51 2.14 1.90 1.55 1.45 1.67 1.72 1.55 1.18 1.22 1.58 2.35 2.25 3.00 3.92 4.93 5.99 5.17 3.37 3.26 2.99 2.81 2.77 2.90 2.44 2.60 2.01 2.70 1.99 2.26 2.26 1.74 1.57
0.09 0.15 0.12 0.07 0.09 0.05 0.08 0.13 0.12 0.06 0.07 0.10 0.07 0.14 0.35 0.25 0.38 0.19 0.19 0.66 0.27 0.59 0.34 0.51 0.78 0.75 0.83 0.96 1.46 1.25 1.38 1.45 1.64 2.32 3.31 3.19 1.36 1.17 1.19 1.33 1.45 1.81 2.18 2.35 2.94 3.57 3.19 2.55 2.64 2.93 3.44 3.80 3.56 3.45 3.04 2.87 2.77 2.07 2.75 1.38 1.34 0.94 0.71
0.14 0.09 0.05 0.05 0.08 0.10 0.03 0.03 0.02 0.08 0.04 0.02 0.03 0.04 0.05 0.10 0.17 0.16 0.14 0.58 0.61 0.37 0.10 0.25 0.23 0.25 0.43 0.37 0.54 0.82 0.85 0.90 1.24 2.31 2.63 1.37 0.92 0.89 0.80 0.92 0.92 1.25 1.98 1.25 1.25 2.05 2.56 2.66 2.25 2.23 2.17 2.54 3.00 3.30 3.26 3.36 2.77 2.83 2.61 1.70 1.06 1.02 0.76
0.11 0.13 0.17 0.10 0.07 0.04 0.06 0.03 0.02 0.01 0.04 0.04 0.01 0.01 0.01 0.01 0.01 0.03 0.10 0.11 0.14 0.19 0.32 0.28 0.18 0.09 0.15 0.28 0.26 0.35 0.37 0.42 1.11 2.49 1.78 0.93 0.77 1.01 0.85 0.87 0.94 1.13 1.19 0.98 1.07 1.11 1.29 1.24 1.63 1.66 1.58 1.49 1.61 2.27 3.64 3.31 2.43 2.50 2.43 1.84 1.20 0.92 0.69
0.06 0.09 0.08 0.05 0.04 0.10 0.07 0.09 0.04 0.00 0.01 0.03 0.02 0.01 0.01 0.03 0.06 0.10 0.08 0.05 0.02 0.02 0.07 0.13 0.11 0.10 0.10 0.14 0.18 0.14 0.12 0.10 0.13 0.22 0.51 0.31 0.34 0.31 0.44 0.60 1.14 0.94 1.15 0.77 0.51 0.52 0.78 0.97 0.77 1.00 1.37 1.82 1.73 1.55 1.30 1.50 1.57 1.49 1.87 2.55 1.11 0.82 0.53
0.32 0.28 0.31 0.27 0.14 0.10 0.07 0.02 0.08 0.13 0.29 0.33 0.42 0.46 0.61 0.69 0.51 0.20 0.06 0.09 0.17 0.19 0.08 0.02 0.02 0.03 0.05 0.05 0.06 0.13 0.07 0.06 0.05 0.04 0.02 0.06 0.07 0.09 0.27 0.59 0.42 0.53 0.82 1.12 0.63 0.71 1.21 1.43 1.45 1.30 0.89 0.52 0.85 1.38 1.57 1.55 1.21 0.91 1.11 1.46 1.08 1.00 0.73
0.44 0.36 0.36 0.36 0.28 0.25 0.20 0.09 0.21 0.35 0.31 0.19 0.40 0.50 0.55 0.55 0.48 0.48 0.47 0.37 0.35 0.33 0.40 0.35 0.39 0.40 0.43 0.55 0.62 0.70 0.78 1.02 0.84 0.21 0.01 0.02 0.03 0.07 0.09 0.44 0.79 0.76 0.62 0.43 0.42 0.48 0.29 0.38 0.39 0.38 0.37 0.50 1.23 1.84 1.93 1.36 0.84 0.92 0.96 1.04 1.02 0.91 1.10
0.59 0.59 0.58 0.53 0.54 0.53 0.56 0.51 0.45 0.59 0.57 0.50 0.59 0.57 0.72 0.91 0.86 0.85 0.95 1.00 1.24 1.40 1.04 0.82 1.05 1.02 0.98 0.76 0.83 0.63 0.68 0.49 0.16 0.10 0.37 0.37 0.93 1.08 1.04 0.40 0.30 0.37 0.45 0.29 0.21 0.18 0.24 0.23 0.34 0.36 0.50 0.98 1.20 1.39 0.45 0.27 0.31 0.51 0.39 0.70 0.82 0.97 1.07
0.56 0.39 0.46 0.45 0.37 0.36 0.53 0.47 0.44 0.49 0.60 0.68 0.61 0.48 0.54 0.52 0.58 1.13 1.32 1.69 1.58 1.59 1.27 1.17 0.79 0.41 0.40 0.40 0.38 0.21 0.32 0.12 0.08 0.08 0.08 0.32 0.55 0.63 0.24 0.03 0.03 0.08 0.10 0.13 0.10 0.09 0.07 0.04 0.16 0.28 0.35 0.48 0.20 0.20 0.20 0.25 0.57 0.51 0.35 0.23 0.44 0.50 0.67
1.25 1.01 0.63 0.49 0.57 0.57 0.59 0.68 0.46 0.22 0.44 0.58 1.13 0.96 1.15 0.65 0.61 0.92 1.02 0.57 0.76 0.70 0.80 0.94 0.79 0.57 0.53 0.47 0.31 0.18 0.21 0.14 0.11 0.09 0.08 0.09 0.03 0.12 0.15 0.08 0.04 0.05 0.07 0.09 0.10 0.20 0.49 0.76 0.84 0.78 0.76 0.73 0.84 0.66 0.59 0.45 0.83 0.59 0.22 0.38 0.56 0.38 0.46
2.10 2.19 1.93 1.41 1.06 0.95 1.04 0.98 0.86 0.79 0.62 0.84 1.08 1.13 0.78 1.01 1.25 1.10 0.68 0.56 0.55 0.88 0.80 0.96 1.46 1.31 1.21 1.36 1.36 0.97 0.91 1.13 1.06 1.00 0.62 1.01 1.28 1.13 1.22 1.07 0.88 0.44 0.34 0.68 0.75 0.46 0.35 0.40 0.57 0.46 0.64 0.57 0.59 0.77 1.34 1.18 1.40 1.59 1.39 1.57 1.23 1.03 0.57